YSB233 ZSPD-RJBB

Flight info

Callsign YSB233
Flight time N/A
Altitude 39000
Route LAM82D/16R LAMEN A593 SADLI Y590 BEDAR Y591 FUE Y35 IGLEV
Aircraft A21N/M-SDE2E3FGHIRWXY/LB1

Departure

Time N/A
Airport Shanghai Pudong International Airport (ZSPD)

Arrival

Time 2026-05-05 15:18
Airport Kansai International Airport (RJBB)
Time Latitude Longitude Altitude Speed Heading
2026-05-05 15:13 34.55587 135.37385 2054 ft 163 kts 198°
2026-05-05 15:13 34.54515 135.36900 1884 ft 164 kts 200°
2026-05-05 15:14 34.53501 135.36250 1720 ft 166 kts 216°
2026-05-05 15:14 34.52680 135.35251 1614 ft 168 kts 228°
2026-05-05 15:14 34.51993 135.34229 1595 ft 146 kts 229°
2026-05-05 15:14 34.51388 135.33320 1617 ft 131 kts 228°
2026-05-05 15:15 34.50831 135.32491 1618 ft 124 kts 228°
2026-05-05 15:15 34.50286 135.31686 1610 ft 123 kts 228°
2026-05-05 15:15 34.49742 135.30882 1490 ft 124 kts 228°
2026-05-05 15:15 34.49198 135.30073 1318 ft 124 kts 228°
2026-05-05 15:16 34.48657 135.29264 1145 ft 124 kts 229°
2026-05-05 15:16 34.48122 135.28466 987 ft 123 kts 229°
2026-05-05 15:16 34.47581 135.27659 824 ft 123 kts 229°
2026-05-05 15:16 34.47039 135.26851 664 ft 123 kts 229°
2026-05-05 15:17 34.46499 135.26046 508 ft 123 kts 229°
2026-05-05 15:17 34.45957 135.25239 320 ft 123 kts 227°
2026-05-05 15:17 34.45416 135.24442 166 ft 123 kts 229°
2026-05-05 15:17 34.44877 135.23629 39 ft 122 kts 229°
2026-05-05 15:18 34.44424 135.22953 29 ft 79 kts 233°
2026-05-05 15:18 34.44179 135.22596 29 ft 35 kts 219°
2026-05-05 15:18 34.44001 135.22475 29 ft 10 kts 201°